Regional Weather Roundup
Issued by NWS Sterling, VA

Home | Current Version | Previous Version | Graphics & Text | Print | Product List | Glossary On
Versions: 1 2 3 4 5 6 7 8 9 10 11 12 13 14 15 16 17 18 19 20 21 22 23 24 25 26 27 28 29 30 31 32 33 34 35 36 37 38 39 40 41 42 43 44 45 46 47 48 49 50
000
ASUS41 KLWX 030110
RWRLWX

REGIONAL WEATHER ROUNDUP
NATIONAL WEATHER SERVICE BALTIMORE MD/WASHINGTON DC
900 PM EDT WED SEP 02 2015

Note: "FAIR" indicates few or no clouds below 12,000 feet
with no significant weather and/or obstructions to visibility.
 TC=TEMPERATURE CELSIUS

 * =Non NWS site. Station does not report precipitation (e.g. rain,
    snow, etc.), thunder, or fog.

DCZ001-MDZ009-015-VAZ040>042-051-053>054-030200-
WASHINGTON METRO

CITY           SKY/WX    TMP DP  RH WIND       PRES   REMARKS
WASHINGTON NAT MOCLDY    83  68  60 SW5       29.94R
DULLES         PTCLDY    77  69  76 CALM      29.95S
ANDREWS AFB    PTCLDY    82  67  60 W7        29.94R
FT BELVOIR     PTCLDY    75  71  86 N1        29.95R
QUANTICO       PTCLDY    78  67  68 NW9       29.95S
COLLEGE PARK*  PTCLDY    79  68  69 CALM      29.93R
LEESBURG*      CLEAR     77  70  78 W5        29.96R
MANASSAS*      CLEAR     75  70  83 S7        29.96
GAITHERSBURG*  CLEAR     75  64  69 NW3       29.98S

$$

MDZ006>007-011-014-030200-
BALTIMORE METRO

CITY           SKY/WX    TMP DP  RH WIND       PRES   REMARKS
BWI AIRPORT    MOCLDY    79  64  60 CALM      29.92S
MD SCIENCE CTR   N/A     82  64  54 MISG      29.93R
MARTIN STATE   MOCLDY    79  72  78 W3        29.93
ANNAPOLIS      MOCLDY    79  71  76 CALM      29.92R
FORT MEADE*    MOCLDY    72  68  88 CALM      29.95S

$$

MDZ012-015-019>023-030200-
MARYLAND EASTERN SHORE

CITY           SKY/WX    TMP DP  RH WIND       PRES   REMARKS
OCEAN CITY     MOCLDY    75  67  76 CALM      29.93R
SALISBURY      PTCLDY    76  73  91 SW5       29.93R
BAY BRIDGE AP*   N/A     79  66  65 CALM      29.93R
CAMBRIDGE*     MOCLDY    79  70  73 CALM      29.93R
EASTON*        MOCLDY    81  73  78 NW5       29.97

$$

MDZ017>025-030200-
SOUTHERN MARYLAND

CITY           SKY/WX    TMP DP  RH WIND       PRES   REMARKS
PATUXENT RIVER MOCLDY    78  70  76 W9        29.93S
ST INIGOES     MOCLDY    78  72  81 SW8       29.94R
LEONARDTOWN*   NOT AVBL

$$

MDZ003>005-030200-
NORTH CENTRAL MARYLAND

CITY           SKY/WX    TMP DP  RH WIND       PRES   REMARKS
FREDERICK*     CLEAR     72  72 100 SE3       29.97S FOG
HAGERSTOWN APT PTCLDY    73  68  84 CALM      29.97R
WESTMINSTER*   CLEAR     73  68  83 SW3       29.96S

$$

MDZ501>502-030200-
WESTERN MARYLAND

CITY           SKY/WX    TMP DP  RH WIND       PRES   REMARKS
OAKLAND*       CLEAR     64  63  94 SW5       30.11S
CUMBERLAND*    CLEAR     72  70  94 CALM      30.03R

$$

VAZ025>031-030200-
SHENANDOAH VALLEY

CITY           SKY/WX    TMP DP  RH WIND       PRES   REMARKS
WINCHESTER*    CLEAR     72  66  83 CALM      29.98R
FRONT ROYAL*   FAIR      68  64  88 S9        29.98S
LURAY*         FAIR      64  64 100 CALM      30.01S FOG
NEW MARKET*    MOCLDY    66  66 100 CALM      30.00S VSB 1
STAUNTON*      CLEAR     73  66  80 CALM      30.05S
WAYNESBORO*    FAIR      69  67  92 CALM      30.05R

$$

WVZ021-048>050-054>055-030200-
EASTERN WEST VIRGINIA PANHANDLE

CITY           SKY/WX    TMP DP  RH WIND       PRES   REMARKS
MARTINSBURG    CLEAR     74  69  85 SE3       29.97R
PETERSBURG*    CLEAR     68  67  96 CALM      30.02S

$$

VAZ036>039-050-030200-
CENTRAL FOOTHILLS

CITY           SKY/WX    TMP DP  RH WIND       PRES   REMARKS
CHARLOTTESVILL CLEAR     73  62  68 S3        29.99F
CULPEPER*      PTCLDY    73  67  79 CALM      29.98S
ORANGE*        CLEAR     72  68  88 S3        29.99S
GORDONSVILLE*  FAIR      71  65  81 W5        29.98S
WARRENTON*     FAIR      76  69  80 W3        29.97S

$$

VAZ055>057-030200-
NORTH AND CENTRAL PIEDMONT

CITY           SKY/WX    TMP DP  RH WIND       PRES   REMARKS
FREDERICKSBRG* MOCLDY    78  69  73 SW6       29.95S
STAFFORD*      MOCLDY    74  65  73 CALM      30.00S

$$

NCZ024-NYZ072-PAZ021-071-VAZ022-071-030200-
OTHER REGIONAL OBSERVATIONS

CITY           SKY/WX    TMP DP  RH WIND       PRES   REMARKS
NEW YORK CITY  CLEAR     80  66  62 CALM      29.93R
PHILADELPHIA   PTCLDY    85  63  47 SW5       29.90S
PITTSBURGH     MOCLDY    77  65  66 W7        30.00R
ROANOKE        CLEAR     77  63  61 CALM      30.04R
RICHMOND       LGT RAIN  73  69  87 S3        29.95F FOG
RALEIGH        PTCLDY    78  70  76 CALM      29.96R

$$

ANZ530>537-030200-
MARINE OBSERVATIONS

STATION/POSITION TIME  TEMP    WIND        PRES
                       AIR SEA DIR/SP/G
                 (UTC) (F)     (DEG/KT/KT) (MB)
THOMAS PT LIGHT  NOT AVBL
BALT KEY BRIDGE  0000   83     260/  7/  8 1012.8R
COVE POINT       0000   81     270/ 12/ 14 1014.0R
LEWISETTA        0000   79 82  240/  6/  8 1013.4R
SOLOMONS ISLAND  0000      81                N/A
PINEY POINT      0005          310/  5/  6   N/A

$$



USA.gov is the U.S. government's official web portal to all federal, state and local government web resources and services.